Time,TemperatureF,DewpointF,PressureIn,WindDirection,WindDirectionDegrees,WindSpeedMPH,WindSpeedGustMPH,Humidity,HourlyPrecipIn,Conditions,Clouds,dailyrainin,SoftwareType,DateUTC
2013-04-14 00:08:00,56.8,55.0,30.04,West,276,0.0,0.0,95,0.00,,,0.00,weatherlink.com 1.10,2013-04-14 04:08:00,
2013-04-14 00:23:00,56.5,55.0,30.04,West,276,0.0,0.0,95,0.00,,,0.00,weatherlink.com 1.10,2013-04-14 04:23:00,
2013-04-14 00:38:00,56.6,56.0,30.04,West,276,0.0,0.0,96,0.00,,,0.00,weatherlink.com 1.10,2013-04-14 04:38:00,
2013-04-14 00:53:00,56.9,56.0,30.04,West,276,0.0,0.0,96,0.00,,,0.00,weatherlink.com 1.10,2013-04-14 04:53:00,
2013-04-14 01:08:00,56.9,56.0,30.04,SSW,210,0.0,1.0,96,0.00,,,0.00,weatherlink.com 1.10,2013-04-14 05:08:00,
2013-04-14 01:23:00,56.7,56.0,30.02,SSW,210,0.0,0.0,97,0.00,,,0.00,weatherlink.com 1.10,2013-04-14 05:23:00,
2013-04-14 01:39:00,56.6,56.0,30.03,SSW,210,0.0,0.0,97,0.00,,,0.00,weatherlink.com 1.10,2013-04-14 05:39:00,
2013-04-14 01:54:00,56.3,55.0,30.03,SSW,208,0.0,1.0,96,0.00,,,0.00,weatherlink.com 1.10,2013-04-14 05:54:00,
2013-04-14 02:09:00,55.5,54.0,30.04,SSW,209,0.0,0.0,96,0.00,,,0.00,weatherlink.com 1.10,2013-04-14 06:09:00,
2013-04-14 02:24:00,55.6,55.0,30.05,SSW,210,0.0,1.0,97,0.00,,,0.00,weatherlink.com 1.10,2013-04-14 06:24:00,
2013-04-14 02:39:00,55.7,55.0,30.03,SSW,210,0.0,0.0,97,0.00,,,0.00,weatherlink.com 1.10,2013-04-14 06:39:00,
2013-04-14 03:09:00,56.5,56.0,30.02,SSW,208,0.0,1.0,98,0.00,,,0.00,weatherlink.com 1.10,2013-04-14 07:09:00,
2013-04-14 03:24:00,56.0,55.0,30.02,SSW,208,0.0,0.0,97,0.00,,,0.00,weatherlink.com 1.10,2013-04-14 07:24:00,
2013-04-14 03:39:00,55.6,55.0,30.02,SSW,208,0.0,0.0,98,0.00,,,0.00,weatherlink.com 1.10,2013-04-14 07:39:00,
2013-04-14 03:54:00,55.2,54.0,30.02,SSW,208,0.0,0.0,97,0.00,,,0.00,weatherlink.com 1.10,2013-04-14 07:54:00,
2013-04-14 04:09:00,55.4,55.0,30.03,SSW,208,0.0,0.0,98,0.00,,,0.00,weatherlink.com 1.10,2013-04-14 08:09:00,
2013-04-14 04:24:00,55.0,55.0,30.03,SSW,208,0.0,0.0,98,0.00,,,0.00,weatherlink.com 1.10,2013-04-14 08:24:00,
2013-04-14 04:39:00,55.3,55.0,30.03,SSW,208,0.0,0.0,98,0.00,,,0.00,weatherlink.com 1.10,2013-04-14 08:39:00,
2013-04-14 04:54:00,55.4,55.0,30.02,SSW,208,0.0,0.0,98,0.00,,,0.00,weatherlink.com 1.10,2013-04-14 08:54:00,
2013-04-14 05:09:00,55.0,55.0,30.03,SSW,208,0.0,0.0,98,0.00,,,0.00,weatherlink.com 1.10,2013-04-14 09:09:00,
2013-04-14 05:24:00,55.4,55.0,30.03,SSW,208,0.0,0.0,98,0.00,,,0.00,weatherlink.com 1.10,2013-04-14 09:24:00,
2013-04-14 05:39:00,55.6,55.0,30.03,SSW,208,0.0,0.0,98,0.00,,,0.00,weatherlink.com 1.10,2013-04-14 09:39:00,
2013-04-14 05:54:00,55.5,55.0,30.03,SSW,208,0.0,0.0,98,0.00,,,0.00,weatherlink.com 1.10,2013-04-14 09:54:00,
2013-04-14 06:09:00,55.5,55.0,30.04,SSW,208,0.0,0.0,98,0.00,,,0.00,weatherlink.com 1.10,2013-04-14 10:09:00,
2013-04-14 06:24:00,55.1,55.0,30.04,SSW,208,0.0,0.0,98,0.00,,,0.00,weatherlink.com 1.10,2013-04-14 10:24:00,
2013-04-14 06:39:00,55.7,55.0,30.04,SSW,208,0.0,0.0,98,0.00,,,0.00,weatherlink.com 1.10,2013-04-14 10:39:00,
2013-04-14 07:09:00,56.3,56.0,30.06,SSW,208,0.0,0.0,98,0.00,,,0.00,weatherlink.com 1.10,2013-04-14 11:09:00,
2013-04-14 07:24:00,56.6,56.0,30.06,SSW,208,0.0,0.0,98,0.00,,,0.00,weatherlink.com 1.10,2013-04-14 11:24:00,
2013-04-14 07:39:00,56.9,56.0,30.07,SSW,208,0.0,0.0,98,0.00,,,0.00,weatherlink.com 1.10,2013-04-14 11:39:00,
2013-04-14 07:54:00,57.6,57.0,30.07,SSW,208,0.0,0.0,99,0.00,,,0.00,weatherlink.com 1.10,2013-04-14 11:54:00,
2013-04-14 08:09:00,58.2,58.0,30.07,SSW,209,0.0,0.0,99,0.00,,,0.00,weatherlink.com 1.10,2013-04-14 12:09:00,
2013-04-14 08:24:00,59.1,59.0,30.08,SSW,208,0.0,0.0,99,0.00,,,0.00,weatherlink.com 1.10,2013-04-14 12:24:00,
2013-04-14 08:39:00,59.9,60.0,30.07,SSW,208,0.0,0.0,99,0.00,,,0.00,weatherlink.com 1.10,2013-04-14 12:39:00,
2013-04-14 08:54:00,60.5,60.0,30.08,SSW,208,0.0,0.0,99,0.00,,,0.00,weatherlink.com 1.10,2013-04-14 12:54:00,
2013-04-14 09:09:00,61.3,61.0,30.08,SSW,210,0.0,0.0,98,0.00,,,0.00,weatherlink.com 1.10,2013-04-14 13:09:00,
2013-04-14 09:24:00,62.1,62.0,30.08,SSW,201,0.0,1.0,98,0.00,,,0.00,weatherlink.com 1.10,2013-04-14 13:24:00,
2013-04-14 09:39:00,63.1,63.0,30.07,SSE,152,0.0,1.0,98,0.00,,,0.00,weatherlink.com 1.10,2013-04-14 13:39:00,
2013-04-14 09:54:00,64.2,63.0,30.08,ESE,104,0.0,3.0,96,0.00,,,0.00,weatherlink.com 1.10,2013-04-14 13:54:00,
2013-04-14 10:09:00,65.2,63.0,30.08,East,79,0.0,2.0,93,0.00,,,0.00,weatherlink.com 1.10,2013-04-14 14:09:00,
2013-04-14 10:25:00,66.7,63.0,30.08,ENE,75,0.0,1.0,89,0.00,,,0.00,weatherlink.com 1.10,2013-04-14 14:25:00,
2013-04-14 10:40:00,67.5,61.0,30.09,East,81,1.0,2.0,80,0.00,,,0.00,weatherlink.com 1.10,2013-04-14 14:40:00,
2013-04-14 10:55:00,68.8,62.0,30.09,SSE,153,0.0,1.0,78,0.00,,,0.00,weatherlink.com 1.10,2013-04-14 14:55:00,
2013-04-14 11:10:00,69.9,61.0,30.10,SE,146,0.0,2.0,74,0.00,,,0.00,weatherlink.com 1.10,2013-04-14 15:10:00,
2013-04-14 11:25:00,70.8,61.0,30.09,SE,139,1.0,2.0,72,0.00,,,0.00,weatherlink.com 1.10,2013-04-14 15:25:00,
2013-04-14 11:40:00,71.2,61.0,30.09,ENE,58,1.0,4.0,71,0.00,,,0.00,weatherlink.com 1.10,2013-04-14 15:40:00,
2013-04-14 11:55:00,71.2,62.0,30.09,ENE,71,2.0,3.0,72,0.00,,,0.00,weatherlink.com 1.10,2013-04-14 15:55:00,
2013-04-14 12:10:00,71.4,63.0,30.09,WSW,250,0.0,2.0,74,0.00,,,0.00,weatherlink.com 1.10,2013-04-14 16:10:00,
2013-04-14 12:25:00,71.3,63.0,30.09,SSE,149,0.0,4.0,74,0.00,,,0.00,weatherlink.com 1.10,2013-04-14 16:25:00,
2013-04-14 12:40:00,71.0,63.0,30.07,East,84,1.0,3.0,76,0.00,,,0.00,weatherlink.com 1.10,2013-04-14 16:40:00,
2013-04-14 12:55:00,70.8,63.0,30.06,West,267,2.0,5.0,77,0.00,,,0.00,weatherlink.com 1.10,2013-04-14 16:55:00,
2013-04-14 13:10:00,70.4,63.0,30.06,ESE,103,2.0,3.0,77,0.00,,,0.00,weatherlink.com 1.10,2013-04-14 17:10:00,
2013-04-14 13:25:00,70.6,63.0,30.07,NNE,29,1.0,5.0,77,0.00,,,0.00,weatherlink.com 1.10,2013-04-14 17:25:00,
2013-04-14 13:40:00,70.6,63.0,30.05,East,93,1.0,6.0,78,0.00,,,0.00,weatherlink.com 1.10,2013-04-14 17:40:00,
2013-04-14 13:55:00,70.9,63.0,30.05,SE,129,1.0,5.0,75,0.00,,,0.00,weatherlink.com 1.10,2013-04-14 17:55:00,
2013-04-14 14:10:00,71.0,63.0,30.04,East,86,0.0,5.0,75,0.00,,,0.00,weatherlink.com 1.10,2013-04-14 18:10:00,
2013-04-14 14:25:00,71.2,63.0,30.05,SE,143,0.0,5.0,75,0.00,,,0.00,weatherlink.com 1.10,2013-04-14 18:25:00,
2013-04-14 14:40:00,71.5,63.0,30.05,ESE,107,0.0,3.0,75,0.00,,,0.00,weatherlink.com 1.10,2013-04-14 18:40:00,
2013-04-14 14:55:00,71.5,64.0,30.05,SE,141,1.0,3.0,76,0.00,,,0.00,weatherlink.com 1.10,2013-04-14 18:55:00,
2013-04-14 15:10:00,71.6,64.0,30.07,SE,141,0.0,3.0,76,0.00,,,0.00,weatherlink.com 1.10,2013-04-14 19:10:00,
2013-04-14 15:25:00,71.5,64.0,30.06,East,88,0.0,4.0,76,0.00,,,0.00,weatherlink.com 1.10,2013-04-14 19:25:00,
2013-04-14 15:40:00,71.4,64.0,30.05,ESE,123,0.0,2.0,77,0.00,,,0.00,weatherlink.com 1.10,2013-04-14 19:40:00,
2013-04-14 15:55:00,71.1,64.0,30.05,NE,51,0.0,3.0,77,0.00,,,0.00,weatherlink.com 1.10,2013-04-14 19:55:00,
2013-04-14 16:10:00,71.0,64.0,30.05,SE,139,0.0,2.0,78,0.00,,,0.00,weatherlink.com 1.10,2013-04-14 20:10:00,
2013-04-14 16:25:00,71.0,64.0,30.06,NE,51,0.0,2.0,78,0.00,,,0.00,weatherlink.com 1.10,2013-04-14 20:25:00,
2013-04-14 16:40:00,70.9,64.0,30.05,ENE,61,0.0,3.0,78,0.00,,,0.00,weatherlink.com 1.10,2013-04-14 20:40:00,
2013-04-14 16:55:00,70.8,64.0,30.05,ENE,71,2.0,2.0,78,0.00,,,0.00,weatherlink.com 1.10,2013-04-14 20:55:00,
2013-04-14 17:10:00,70.6,64.0,30.04,SE,131,0.0,1.0,79,0.00,,,0.00,weatherlink.com 1.10,2013-04-14 21:10:00,
2013-04-14 17:25:00,70.5,64.0,30.04,SSE,163,0.0,3.0,79,0.00,,,0.00,weatherlink.com 1.10,2013-04-14 21:25:00,
2013-04-14 17:40:00,70.2,63.0,30.03,ESE,110,1.0,2.0,79,0.00,,,0.00,weatherlink.com 1.10,2013-04-14 21:40:00,
2013-04-14 17:55:00,70.0,63.0,30.02,ESE,123,0.0,2.0,79,0.00,,,0.00,weatherlink.com 1.10,2013-04-14 21:55:00,
2013-04-14 18:10:00,70.0,63.0,30.03,NE,44,0.0,3.0,79,0.00,,,0.00,weatherlink.com 1.10,2013-04-14 22:10:00,
2013-04-14 18:25:00,69.7,63.0,30.01,NNE,29,0.0,3.0,79,0.00,,,0.00,weatherlink.com 1.10,2013-04-14 22:25:00,
2013-04-14 18:40:00,69.3,63.0,30.02,ESE,104,0.0,4.0,79,0.00,,,0.00,weatherlink.com 1.10,2013-04-14 22:40:00,
2013-04-14 18:55:00,69.3,63.0,30.02,ENE,65,2.0,4.0,79,0.00,,,0.00,weatherlink.com 1.10,2013-04-14 22:55:00,
2013-04-14 19:10:00,68.7,63.0,30.01,East,81,1.0,5.0,82,0.00,,,0.00,weatherlink.com 1.10,2013-04-14 23:10:00,
2013-04-14 19:25:00,67.7,63.0,30.00,East,97,1.0,3.0,84,0.01,,,0.01,weatherlink.com 1.10,2013-04-14 23:25:00,
2013-04-14 19:40:00,67.5,62.0,29.97,NNE,26,3.0,8.0,83,0.01,,,0.01,weatherlink.com 1.10,2013-04-14 23:40:00,
2013-04-14 19:55:00,67.4,62.0,29.96,SSE,153,1.0,5.0,82,0.01,,,0.01,weatherlink.com 1.10,2013-04-14 23:55:00,
2013-04-14 20:10:00,67.8,62.0,29.94,East,81,0.0,4.0,81,0.01,,,0.01,weatherlink.com 1.10,2013-04-15 00:10:00,
2013-04-14 20:26:00,68.1,62.0,29.95,East,96,1.0,4.0,80,0.00,,,0.01,weatherlink.com 1.10,2013-04-15 00:26:00,
2013-04-14 20:40:00,68.2,61.0,29.96,ESE,116,1.0,7.0,79,0.00,,,0.01,weatherlink.com 1.10,2013-04-15 00:40:00,
2013-04-14 20:55:00,68.3,62.0,30.02,East,98,1.0,5.0,81,0.00,,,0.01,weatherlink.com 1.10,2013-04-15 00:55:00,
2013-04-14 21:10:00,67.4,62.0,30.05,ESE,109,0.0,6.0,83,0.01,,,0.02,weatherlink.com 1.10,2013-04-15 01:10:00,
2013-04-14 21:26:00,66.0,63.0,30.05,ESE,103,0.0,2.0,89,0.04,,,0.05,weatherlink.com 1.10,2013-04-15 01:26:00,
2013-04-14 21:40:00,65.2,63.0,30.05,WSW,241,0.0,2.0,92,0.06,,,0.07,weatherlink.com 1.10,2013-04-15 01:40:00,
2013-04-14 21:55:00,64.9,63.0,30.02,ESE,103,0.0,2.0,93,0.06,,,0.07,weatherlink.com 1.10,2013-04-15 01:55:00,
2013-04-14 22:10:00,64.9,63.0,30.01,SE,141,0.0,2.0,94,0.07,,,0.09,weatherlink.com 1.10,2013-04-15 02:10:00,
2013-04-14 22:26:00,65.1,64.0,30.01,East,94,0.0,1.0,95,0.06,,,0.11,weatherlink.com 1.10,2013-04-15 02:26:00,
2013-04-14 22:41:00,65.1,64.0,30.01,ENE,57,1.0,3.0,96,0.05,,,0.12,weatherlink.com 1.10,2013-04-15 02:41:00,
2013-04-14 22:56:00,65.1,64.0,30.00,ENE,57,0.0,1.0,96,0.08,,,0.15,weatherlink.com 1.10,2013-04-15 02:56:00,
2013-04-14 23:11:00,65.0,64.0,30.00,SSE,147,1.0,5.0,97,0.08,,,0.17,weatherlink.com 1.10,2013-04-15 03:11:00,
2013-04-14 23:26:00,65.0,64.0,30.00,ENE,71,1.0,3.0,97,0.07,,,0.18,weatherlink.com 1.10,2013-04-15 03:26:00,
2013-04-14 23:41:00,64.9,64.0,29.99,ENE,65,0.0,5.0,97,0.09,,,0.21,weatherlink.com 1.10,2013-04-15 03:41:00,
2013-04-14 23:56:00,64.6,64.0,29.99,ENE,57,1.0,2.0,97,0.09,,,0.24,weatherlink.com 1.10,2013-04-15 03:56:00,